0 GLOBALSTAR M001 1 25162U 98008A 25021.46291036 -.00000063 00000-0 25647-3 0 9999 2 25162 52.0046 40.2757 0001251 300.0089 226.0761 12.38205781225537 0 GLOBALSTAR M004 1 25163U 98008B 25021.73329288 -.00000022 00000-0 45180-3 0 9990 2 25163 51.9993 140.9442 0002291 338.6425 169.1407 12.63386168243173 0 GLOBALSTAR M002 1 25164U 98008C 25021.86762126 -.00000060 00000-0 32458-3 0 9993 2 25164 51.9986 247.0781 0000374 192.0268 168.0543 11.61506817167062 0 GLOBALSTAR M003 1 25165U 98008D 25021.92874892 .00000000 00000-0 95762-3 0 9995 2 25165 51.9956 213.5893 0008095 5.3844 143.1605 12.12066784215480 0 GLOBALSTAR M014 1 25306U 98023A 25021.73429376 -.00000054 00000-0 44744-3 0 9995 2 25306 51.9812 173.7132 0002095 97.0283 5.4431 11.65478177174098 0 GLOBALSTAR M006 1 25307U 98023B 25021.94808517 -.00000053 00000-0 46957-3 0 9994 2 25307 51.9902 220.1818 0003176 182.0171 324.0528 11.58171882199885 0 GLOBALSTAR M015 1 25308U 98023C 25021.78779221 -.00000020 00000-0 12170-2 0 9999 2 25308 51.9848 312.3438 0012362 173.4359 224.5414 11.48857785177253 0 GLOBALSTAR M008 1 25309U 98023D 25021.87557991 -.00000075 00000-0 16570-3 0 9997 2 25309 51.9956 262.2500 0001720 215.8596 226.5027 12.36060874219754 0 GLOBALSTAR M023 1 25621U 99004A 25021.58859271 -.00000088 00000-0 86676-4 0 9997 2 25621 52.0098 139.8363 0010560 160.4775 315.6317 12.62494528197306 0 GLOBALSTAR M040 1 25622U 99004B 25021.75128799 -.00000030 00000-0 41002-3 0 9991 2 25622 51.9912 143.2766 0001669 95.3417 53.2805 12.61998625196767 0 GLOBALSTAR M036 1 25623U 99004C 25021.89535753 .00000028 00000-0 16086-2 0 9998 2 25623 51.9958 265.9158 0011343 129.0117 312.0368 11.86590801161613 0 GLOBALSTAR M038 1 25624U 99004D 25021.73772318 -.00000045 00000-0 41040-3 0 9991 2 25624 51.9967 133.3269 0002785 112.1223 39.7790 12.32518983184313 0 GLOBALSTAR M022 1 25649U 99012A 25021.85576662 -.00000098 00000-0 -12972-3 0 9995 2 25649 52.0069 328.6975 0001866 242.8266 151.4599 12.02494670158778 0 GLOBALSTAR M041 1 25650U 99012B 25021.87854362 -.00000057 00000-0 36666-3 0 9995 2 25650 51.9986 205.6268 0002881 53.6302 306.4800 11.96670290160767 0 GLOBALSTAR M046 1 25651U 99012C 25021.89791444 -.00000123 00000-0 -37445-3 0 9990 2 25651 52.0063 284.0591 0002212 343.5555 96.3309 12.09406692165969 0 GLOBALSTAR M037 1 25652U 99012D 25021.86917512 -.00000037 00000-0 37051-3 0 9990 2 25652 51.9999 269.6567 0001148 204.9829 234.9676 12.62433749192799 0 GLOBALSTAR M045 1 25676U 99019A 25021.42120226 -.00000112 00000-0 -16579-3 0 9990 2 25676 51.9995 3.5825 0000292 332.9889 194.1248 12.27055078175373 0 GLOBALSTAR M019 1 25677U 99019B 25021.71971929 -.00000109 00000-0 -20405-3 0 9996 2 25677 51.9869 122.7893 0001228 69.0912 97.3314 12.13868540167356 0 GLOBALSTAR M044 1 25678U 99019C 25021.39615653 -.00000085 00000-0 -15681-4 0 9994 2 25678 51.9978 56.6860 0006835 119.9958 341.5221 11.90248619153844 0 GLOBALSTAR M042 1 25679U 99019D 25021.59778949 -.00000092 00000-0 -13949-5 0 9999 2 25679 52.0016 104.7782 0002395 10.3995 137.5576 12.22076949167404 0 GLOBALSTAR M025 1 25770U 99031A 25021.65958785 -.00000050 00000-0 52931-3 0 9995 2 25770 51.9805 138.7122 0000962 213.1661 254.2996 11.22558762465250 0 GLOBALSTAR M049 1 25771U 99031B 25021.84153916 .00000004 00000-0 23960-2 0 9997 2 25771 51.9847 165.6986 0004553 121.7127 238.4114 11.12111313101142 0 GLOBALSTAR M047 1 25772U 99031C 25021.91179443 -.00000040 00000-0 81664-3 0 9996 2 25772 51.9802 176.4853 0016348 16.2646 343.8681 11.31926295454545 0 GLOBALSTAR M052 1 25773U 99031D 25021.93367885 -.00000090 00000-0 -82639-3 0 9997 2 25773 51.9865 276.2281 0001930 312.0448 131.1563 11.15057187462191 0 GLOBALSTAR M035 1 25851U 99037A 25021.95406007 -.00000056 00000-0 30341-3 0 9996 2 25851 51.9981 21.0786 0013772 105.1939 266.3601 11.04535330 80106 0 GLOBALSTAR M032 1 25852U 99037B 25021.93058154 -.00000060 00000-0 22158-3 0 9993 2 25852 51.9910 216.4191 0009895 284.5226 75.4475 11.19055790118418 0 GLOBALSTAR M051 1 25853U 99037C 25021.38340042 -.00000061 00000-0 27779-3 0 9998 2 25853 51.9813 35.0378 0000749 299.4212 60.6524 11.42200437115618 0 GLOBALSTAR M030 1 25854U 99037D 25021.92675286 -.00000043 00000-0 68845-3 0 9999 2 25854 51.9838 209.1329 0004488 134.0157 226.1030 11.55103852133148 0 GLOBALSTAR M048 1 25872U 99041A 25021.85605986 -.00000048 00000-0 60232-3 0 9993 2 25872 51.9401 323.2764 0013069 293.8800 98.2414 11.33853589108386 0 GLOBALSTAR M026 1 25873U 99041B 25021.58126792 -.00000038 00000-0 96162-3 0 9997 2 25873 51.9997 141.4108 0001581 49.6786 38.3097 11.06825280132257 0 GLOBALSTAR M043 1 25874U 99041C 25021.40669373 -.00000049 00000-0 56450-3 0 9994 2 25874 51.9412 66.1363 0013300 64.7414 36.8245 11.25690632106345 0 GLOBALSTAR M028 1 25875U 99041D 25021.89159312 -.00000070 00000-0 19545-3 0 9993 2 25875 51.9618 269.2935 0063908 113.1418 247.6193 12.50575152171879 0 GLOBALSTAR M024 1 25883U 99043A 25021.96629663 -.00000049 00000-0 54980-3 0 9991 2 25883 52.0061 350.5481 0001219 212.7710 186.8903 11.10166550 98627 0 GLOBALSTAR M027 1 25884U 99043B 25021.50383717 -.00000110 00000-0 -17645-2 0 9995 2 25884 52.0224 65.4164 0021780 115.4898 244.8151 11.04370731125037 0 GLOBALSTAR M054 1 25885U 99043C 25021.96988247 -.00000053 00000-0 47391-3 0 9992 2 25885 52.0099 216.2178 0004621 292.9489 220.1979 11.39215906102389 0 GLOBALSTAR M053 1 25886U 99043D 25021.74652612 -.00000045 00000-0 68684-3 0 9992 2 25886 51.9963 155.7199 0003816 173.7740 334.5821 11.27662613102923 0 GLOBALSTAR M058 1 25907U 99049A 25021.87794735 .00000033 00000-0 15783-2 0 9996 2 25907 51.9930 139.8576 0001598 30.0376 330.0550 11.93193844524070 0 GLOBALSTAR M050 1 25908U 99049B 25021.88398152 .00000014 00000-0 11532-2 0 9998 2 25908 51.9973 158.4465 0010210 101.3204 75.1776 12.07448087130512 0 GLOBALSTAR M033 1 25909U 99049C 25021.97754269 -.00000161 00000-0 -66965-3 0 9990 2 25909 51.9931 40.1208 0012840 322.4099 37.5850 12.20291847517898 0 GLOBALSTAR M055 1 25910U 99049D 25021.50909651 -.00000068 00000-0 22608-3 0 9999 2 25910 52.0028 59.3283 0007315 184.9445 175.1335 12.29419303150462 0 GLOBALSTAR M057 1 25943U 99058A 25021.38513514 -.00000045 00000-0 43217-3 0 9994 2 25943 51.9997 44.8230 0002677 82.8699 277.2455 12.24808140148948 0 GLOBALSTAR M059 1 25944U 99058B 25021.91403830 -.00000070 00000-0 20268-3 0 9992 2 25944 51.9993 242.8896 0001318 66.2786 35.3631 11.99972598556488 0 GLOBALSTAR M056 1 25945U 99058C 25021.91667517 -.00000069 00000-0 21347-3 0 9994 2 25945 51.9939 248.5955 0000161 31.7256 71.4683 12.04777380144998 0 GLOBALSTAR M031 1 25946U 99058D 25021.79651587 -.00000125 00000-0 -35010-3 0 9997 2 25946 51.9948 150.0173 0001105 192.8853 333.6979 12.16026493146739 0 GLOBALSTAR M039 1 25961U 99062A 25021.60185498 -.00000072 00000-0 17983-3 0 9991 2 25961 51.9869 355.1841 0002943 28.0830 332.0195 12.62316075161700 0 GLOBALSTAR M034 1 25962U 99062B 25022.00209767 .00000029 00000-0 17510-2 0 9999 2 25962 51.9891 31.3834 0014258 125.2151 249.9350 11.79441100121147 0 GLOBALSTAR M029 1 25963U 99062C 25021.75989956 -.00000080 00000-0 76173-4 0 9996 2 25963 51.9800 131.4663 0003037 172.5430 346.0385 11.99890470151542 0 GLOBALSTAR M061 1 25964U 99062D 25021.96168833 -.00000082 00000-0 -33528-4 0 9993 2 25964 51.9762 213.5838 0007033 56.3336 96.1719 11.76770467103965 0 GLOBALSTAR M063 1 26081U 00008A 25021.72360300 -.00000109 00000-0 -38807-3 0 9997 2 26081 51.9946 137.3033 0004940 44.2566 109.6708 11.86168194140198 0 GLOBALSTAR M062 1 26082U 00008B 25021.92748185 -.00000050 00000-0 34469-3 0 9995 2 26082 51.9829 165.8847 0007645 153.3276 358.4978 12.43458586478427 0 GLOBALSTAR M060 1 26083U 00008C 25021.64182400 -.00000086 00000-0 54066-4 0 9992 2 26083 52.0020 106.0007 0003890 174.8889 340.1753 12.17650877134510 0 GLOBALSTAR M064 1 26084U 00008D 25021.89420651 -.00000041 00000-0 59719-3 0 9993 2 26084 52.0002 237.4090 0002335 111.0706 249.0377 11.88529546149707 0 GLOBALSTAR M065 1 31571U 07020A 25021.94525345 -.00000129 00000-0 -14023-3 0 9990 2 31571 51.9914 311.3807 0010526 346.3951 89.4575 12.61990390814940 0 GLOBALSTAR M069 1 31573U 07020C 25021.84620869 -.00000067 00000-0 22092-3 0 9993 2 31573 51.9947 273.0881 0001708 33.4792 43.5924 12.47306635815962 0 GLOBALSTAR M072 1 31574U 07020D 25021.97360426 -.00000079 00000-0 74164-4 0 9999 2 31574 52.0100 21.1850 0000850 65.7273 317.4767 11.91772150814035 0 GLOBALSTAR M071 1 31576U 07020F 25021.92583648 -.00000053 00000-0 37895-3 0 9990 2 31576 52.0066 280.6736 0001040 109.1529 332.9944 12.18247505477116 0 GLOBALSTAR M067 1 32263U 07048A 25021.55704897 -.00000060 00000-0 28096-3 0 9995 2 32263 51.9729 104.9824 0001132 72.2958 34.6059 12.40665004791528 0 GLOBALSTAR M070 1 32264U 07048B 25021.98862417 -.00000068 00000-0 19806-3 0 9993 2 32264 51.9720 213.8821 0001187 95.8030 62.7985 12.62310984795206 0 GLOBALSTAR M066 1 32265U 07048C 25021.59774869 -.00000100 00000-0 -16193-4 0 9999 2 32265 51.9674 91.1860 0000858 137.3336 10.6940 12.42169590797163 0 GLOBALSTAR M068 1 32266U 07048D 25021.95104644 -.00000100 00000-0 22031-4 0 9995 2 32266 51.9900 28.0297 0001064 161.4810 209.2106 12.62813515799082 0 GLOBALSTAR M079 1 37188U 10054A 25021.94305301 -.00000086 00000-0 97771-4 0 9992 2 37188 52.0012 224.9793 0000958 66.8949 79.8543 12.62270193657983 0 GLOBALSTAR M074 1 37189U 10054B 25021.96095391 -.00000083 00000-0 11489-3 0 9998 2 37189 51.9987 224.2695 0001226 83.4390 24.6774 12.62262186658596 0 GLOBALSTAR M076 1 37190U 10054C 25021.99743579 -.00000067 00000-0 20709-3 0 9998 2 37190 52.0000 224.3153 0001253 68.5733 86.1534 12.62276871658314 0 GLOBALSTAR M077 1 37191U 10054D 25021.90764194 -.00000079 00000-0 13967-3 0 9997 2 37191 52.0049 181.4031 0001078 96.8671 68.3181 12.62270124658670 0 GLOBALSTAR M075 1 37192U 10054E 25021.83507984 -.00000074 00000-0 16798-3 0 9992 2 37192 51.9940 267.1487 0000945 72.5843 4.6155 12.62272297657362 0 GLOBALSTAR M073 1 37193U 10054F 25021.93566897 -.00000082 00000-0 12289-3 0 9992 2 37193 52.0035 180.5473 0001042 90.5055 83.0795 12.62262695659361 0 GLOBALSTAR M083 1 37739U 11033A 25021.61668644 -.00000087 00000-0 91469-4 0 9997 2 37739 51.9854 130.4493 0000652 114.9761 349.2618 12.62270909628703 0 GLOBALSTAR M088 1 37740U 11033B 25021.96590825 -.00000088 00000-0 89146-4 0 9992 2 37740 51.9750 34.9998 0000174 116.2360 255.9153 12.62267663623937 0 GLOBALSTAR M091 1 37741U 11033C 25021.98541319 -.00000082 00000-0 12197-3 0 9994 2 37741 52.0023 358.2353 0000116 358.7958 41.4711 12.62272943624725 0 GLOBALSTAR M085 1 37742U 11033D 25021.81263538 -.00000069 00000-0 19420-3 0 9992 2 37742 51.9886 309.9311 0000449 43.0608 351.7884 12.62264312625217 0 GLOBALSTAR M081 1 37743U 11033E 25021.84493528 -.00000083 00000-0 11468-3 0 9990 2 37743 51.9978 312.5269 0000627 36.3019 26.7647 12.62259507625363 0 GLOBALSTAR M089 1 37744U 11033F 25021.88877536 -.00000085 00000-0 10298-3 0 9992 2 37744 51.9923 266.6518 0001122 69.1642 12.0086 12.62265432626468 0 GLOBALSTAR M084 1 38040U 11080A 25021.76175233 -.00000088 00000-0 85403-4 0 9990 2 38040 52.0002 134.2443 0001152 105.7612 58.4015 12.62273606604174 0 GLOBALSTAR M080 1 38041U 11080B 25021.80955036 -.00000094 00000-0 55230-4 0 9995 2 38041 52.0054 135.6586 0001203 90.0561 48.7112 12.62260545604304 0 GLOBALSTAR M082 1 38042U 11080C 25021.58707234 -.00000082 00000-0 12195-3 0 9995 2 38042 52.0080 91.7638 0000690 166.1605 343.1629 12.62272321605151 0 GLOBALSTAR M092 1 38043U 11080D 25021.88073595 -.00000069 00000-0 19592-3 0 9998 2 38043 52.0061 181.2377 0001111 101.0336 63.4103 12.62272337603473 0 GLOBALSTAR M090 1 38044U 11080E 25021.53235105 -.00000089 00000-0 79814-4 0 9994 2 38044 51.9889 85.9280 0000495 141.2636 358.8182 12.62265892605137 0 GLOBALSTAR M086 1 38045U 11080F 25021.64235794 -.00000091 00000-0 73368-4 0 9992 2 38045 51.9901 86.1324 0000688 37.6004 123.0624 12.62265872605058 0 GLOBALSTAR M097 1 39072U 13005A 25021.95048252 -.00000090 00000-0 74530-4 0 9998 2 39072 52.0069 359.5933 0000293 31.0192 329.0692 12.62269178552346 0 GLOBALSTAR M093 1 39073U 13005B 25021.92343403 -.00000083 00000-0 11493-3 0 9992 2 39073 51.9835 353.2083 0000352 15.8246 344.2632 12.62272127552294 0 GLOBALSTAR M094 1 39074U 13005C 25021.84470212 -.00000072 00000-0 17712-3 0 9991 2 39074 51.9951 267.6895 0000747 47.7608 312.3322 12.62267477553898 0 GLOBALSTAR M096 1 39075U 13005D 25021.93711586 -.00000069 00000-0 19296-3 0 9999 2 39075 52.0095 315.8078 0000442 26.6141 333.4749 12.62267099552828 0 GLOBALSTAR M078 1 39076U 13005E 25021.43498483 -.00000047 00000-0 31507-3 0 9998 2 39076 51.9884 42.0392 0000915 194.2950 165.7891 12.62269636551389 0 GLOBALSTAR M095 1 39077U 13005F 25021.38262029 -.00000095 00000-0 50568-4 0 9990 2 39077 51.9811 39.4713 0000414 219.9328 140.1508 12.62265591551237 0 GLOBALSTAR M087 1 52888U 22064A 25021.88907061 -.00000092 00000-0 70495-4 0 9995 2 52888 51.9768 179.3407 0004189 67.8782 292.2531 12.65662696126563